Location: Newark
(50.4348°N, 30.5552°E)
Time: 21:01:12
(UTC+00:00)

Vanguard 3 - Pass Details

Date: 19 January 2020
Orbit: 508 x 3263 km, 33.3° (Epoch: 25 February)

Event Time Altitude Azimuth Distance (km) Brightness Sun altitude
Rises 16:51:05 0° 224° (SW) 7,213 12.7 -22.2°
Reaches altitude 10° 16:56:58 10° 216° (SW) 6,079 12.1 -23.2°
Maximum altitude 17:11:33 31° 164° (SSE) 3,863 10.4 -25.5°
Enters shadow 17:17:06 24° 131° (SE) 3,820 10.1 -26.4°
